This is the latest recevied weather packets stored in our database for station/object WA7ABU-29. If no packets are shown the sender has not sent any weather packets the latest 10 day(s).
| Time | Temp. | Humidity | Pressure | Rain* | Wind** | Luminosity | Snow |
|---|---|---|---|---|---|---|---|
| 1777593177 | 23.33° C | 55% | 996.3 hPa | 0 mm | - | - | - |
| 1777592681 | 22.78° C | 51% | 996.6 hPa | 0 mm | - | - | - |
| 1777591297 | 22.22° C | 57% | 997 hPa | 0 mm | - | - | - |
| 1777590635 | 22.22° C | 58% | 997.3 hPa | 0 mm | - | - | - |
| 1777589870 | 21.67° C | 51% | 997.3 hPa | 0 mm | - | - | - |
| 1777589611 | 21.67° C | 55% | 997.6 hPa | 0 mm | - | - | - |
| 1777588927 | 21.67° C | 58% | 997.6 hPa | 0 mm | - | - | - |
| 1777587231 | 21.67° C | 55% | 998 hPa | 0 mm | - | - | - |
| 1777587210 | 21.67° C | 55% | 997.6 hPa | 0 mm | - | - | - |
| 1777587054 | 22.22° C | 54% | 998 hPa | 0 mm | - | - | - |
| 1777586671 | 21.67° C | 58% | 998 hPa | 0 mm | - | - | - |
| 1777586548 | 21.67° C | 60% | 998 hPa | 0 mm | - | - | - |
| 1777586301 | 21.67° C | 56% | 998 hPa | 0 mm | - | - | - |
| 1777586053 | 21.67° C | 52% | 998 hPa | 0 mm | - | - | - |
| 1777585907 | 21.67° C | 53% | 998 hPa | 0 mm | - | - | - |
| 1777584658 | 21.11° C | 62% | 998.3 hPa | 0 mm | - | - | - |
| 1777584265 | 20.56° C | 61% | 998.3 hPa | 0 mm | - | - | - |
| 1777583851 | 20.56° C | 59% | 998.3 hPa | 0 mm | - | - | - |
| 1777582703 | 20° C | 62% | 998.6 hPa | 0 mm | - | - | - |
| 1777581681 | 20° C | 58% | 998.6 hPa | 0 mm | - | - | - |
| 1777579075 | 18.33° C | 59% | 999 hPa | 0 mm | - | - | - |
| 1777578951 | 18.33° C | 62% | 999 hPa | 0 mm | - | - | - |
| 1777577119 | 16.67° C | 65% | 999.3 hPa | 0 mm | - | - | - |
| 1777576590 | 16.67° C | 62% | 999.7 hPa | 0 mm | - | - | - |
| 1777575724 | 16.67° C | 63% | 999.7 hPa | 0 mm | - | - | - |
* Rain latest hour (hover to see other rain measurements)
** Current wind speed in m/s (hover to see current wind gust speed)